Вернуться в каталог

STARLINK-36934

АктивенСвязьVLEO
NORAD 68279·PAYLOAD·🇺🇸 United States

Запущен Mar 19, 2026 с Vandenberg Space Force Base

Loading…

Ближайшие Пролёты (ближайшие 24 часа)

TLE

СвежийSource: CelesTrak SupGP

Эпоха: Sep 15, 2026, 02:59 UTC

1 68279C 26055T   26258.12479167 -.00007214  00000+0 -21317-3 0  2580
2 68279  53.1581 155.0305 0001203  88.5139 334.4359 15.34389568    10

Отслеживайте STARLINK-36934 в реальном времени с AllMySat

Download on the App Store